THORAD AGENA D DEB *, 5824

Orbit data source: Space-Track

THORAD AGENA D DEB *, 5824 is space debris in SSO originally from a launch on Wed, 08 Apr 1970 UTC launched from the Air Force Western Test Range (AFWTR). Debris objects in space refer to the collection of defunct objects orbiting the Earth. Examples of debris include non-operational satellites, rocket bodies, and fragments generated from explosions, collisions, or faulty payload assembly.

Loading next visibility...
Identifier
5824, 1970-025MJ
Orbit
SSO
Country
Flag of USUS
Related business
Manufacturer
Unknown
Mission
Spacecraft
Bus & Motor
Unknown
Mass
Unknown
Launch date (UTC)
1970-04-08 (56 years ago)
Launch vehicle
Unknown
Launch site
Air Force Western Test Range (AFWTR)
Object type
Payload
Rocket body
Debris
Shape & HBR
Unknown shape, 0.1 m
Radar Cross Section
Small (<0.1 m²)

Expand to show TLE details & history
Last TLE update: 1 day ago

TLE from 1 day ago
0 THORAD AGENA D DEB *
1 05824U 70025MJ  25352.25738365  .00000444  00000-0  36497-3 0  9993
2 05824  97.9015  88.7321 0598745  24.8647 338.0112 13.30849275652890
Epoch: 2025-12-18T06:10Z
TLE epoch observation values (Epoch: 2025-12-18T06:10:37.947Z)
Latitude
0.00003°
Longitude
-91.0415°
Altitude
732.825 km
Speed
7.692 km/s
True Right ascension
05h 54m 55s
True Declination
0° 00' 00"
Sunlit
Object was in full shadow at epoch
Visualization orbit readout
Latitude
Unknown
Longitude
Unknown
Altitude
Unknown
Speed
Unknown
Apparent Right ascension
Unknown
Apparent Declination
Unknown
Sunlit
N/A
Visualization observer readout
Local Sidereal Time
07:27:15
Azimuth
Unknown
Elevation
Unknown
Doppler factor
Unknown
Orbital elements
Apogee altitude
1,590.982 km
Perigee altitude
690.598 km
Semi-major axis
7,518.927 km
Eccentricity
0.05987
Inclination
97.9015°
RAAN
88.7321°
Arg. of periapsis
24.8647°
True anomaly
335.25235°
Mean anomaly
338.0112°
Eccentric anomaly
336.6516°
Mean motion
3.32897 °/min
Orbital period
108.14 mins
BSTAR
0.00036497
Loading maneuver chart data...
Computing Atmospheric mass density...

Documentation

Showing up to 5 results
|